Big Bear City, CA

5:30 AM PST on February 19, 2017 (GMT -0800)
Big Bear City

Weather History for KL35 - January, 2014

Change the Weather History Date:

Friday, January 17, 2014

  Actual Average (KBUO) Record (KBUO)
Temperature  
Mean Temperature 37 °F -  
Max Temperature 55 °F 58 °F 69 °F (2000)
Min Temperature 19 °F 41 °F 28 °F (2001)
Degree Days  
Heating Degree Days 28    
Moisture  
Dew Point 0 °F    
Average Humidity 29    
Maximum Humidity 49    
Minimum Humidity 8    
Precipitation  
Precipitation 0.00 in - - ()
Sea Level Pressure  
Sea Level Pressure 30.34 in    
Wind  
Wind Speed 3 mph (ENE)    
Max Wind Speed 16 mph    
Max Gust Speed 21 mph    
Visibility 10 miles    
Events      
Averages and records for this station are not official NWS values.
T = Trace of Precipitation, MM = Missing Value Source: NWS Daily Summary

Daily Weather History Graph

Daily Weather History Graph

Search for Another Location

Airport or City:

Trip Planner

Search our weather history database for the weather conditions in past years. The results will help you decide how hot, cold, wet, or windy it might be!

Date:

Astronomy

Jan. 17, 2014 Rise Set
Actual Time 6:52 AM PST 5:02 PM PST
Civil Twilight 6:25 AM PST 5:29 PM PST
Nautical Twilight 5:54 AM PST 6:00 PM PST
Astronomical Twilight 5:24 AM PST 6:30 PM PST
Moon 6:46 PM PST (1/17) 7:28 AM PST (1/17)
Length of Visible Light 11h 04m
Length of Day
10h 10m
Full, 98% of the Moon is Illuminated
Jan 17
Full
Jan 23
Last Quarter
Jan 30
New
Feb 6
First Quarter
Feb 14
Full

Hourly Weather History & Observations

Time (PST) Temp. Windchill Dew Point Humidity Pressure Visibility Wind Dir Wind Speed Gust Speed Precip Events Conditions
12:15 AM 28.4 °F - 1.4 °F 31% 30.35 in 10.0 mi Calm Calm - N/A   Clear
12:35 AM 26.6 °F - 1.4 °F 34% 30.36 in 7.0 mi Calm Calm - N/A   Clear
12:55 AM 26.6 °F - 1.4 °F 34% 30.36 in 10.0 mi Calm Calm - N/A   Clear
1:15 AM 24.8 °F 20.5 °F 1.4 °F 36% 30.36 in 10.0 mi SSW 3.5 mph - N/A   Clear
1:35 AM 24.8 °F - 3.2 °F 40% 30.36 in 10.0 mi Calm Calm - N/A   Clear
1:55 AM 24.8 °F - 3.2 °F 40% 30.36 in 10.0 mi Calm Calm - N/A   Clear
2:15 AM 23.0 °F - 3.2 °F 43% 30.36 in 10.0 mi Calm Calm - N/A   Clear
2:35 AM 23.0 °F - 3.2 °F 43% 30.36 in 10.0 mi Calm Calm - N/A   Clear
2:55 AM 23.0 °F - 3.2 °F 43% 30.35 in 10.0 mi Calm Calm - N/A   Clear
3:15 AM 23.0 °F - 3.2 °F 43% 30.35 in 10.0 mi Calm Calm - N/A   Clear
3:35 AM 23.0 °F - 3.2 °F 43% 30.35 in 10.0 mi Calm Calm - N/A   Clear
3:55 AM 21.2 °F - 3.2 °F 46% 30.35 in 10.0 mi Calm Calm - N/A   Clear
4:15 AM 21.2 °F - 3.2 °F 46% 30.35 in 10.0 mi Calm Calm - N/A   Clear
4:35 AM 21.2 °F - 3.2 °F 46% 30.35 in 10.0 mi Calm Calm - N/A   Clear
4:55 AM 21.2 °F - 3.2 °F 46% 30.35 in 10.0 mi Calm Calm - N/A   Clear
5:15 AM 19.4 °F - 3.2 °F 49% 30.35 in 10.0 mi Calm Calm - N/A   Clear
5:35 AM 19.4 °F - 3.2 °F 49% 30.36 in 10.0 mi Calm Calm - N/A   Clear
5:55 AM 19.4 °F 14.3 °F 3.2 °F 49% 30.36 in 10.0 mi West 3.5 mph - N/A   Clear
6:15 AM 19.4 °F - 3.2 °F 49% 30.36 in 10.0 mi Calm Calm - N/A   Clear
6:35 AM 19.4 °F - 3.2 °F 49% 30.36 in 10.0 mi Calm Calm - N/A   Clear
6:55 AM 19.4 °F - 3.2 °F 49% 30.36 in 10.0 mi Calm Calm - N/A   Clear
7:15 AM 19.4 °F - 3.2 °F 49% 30.36 in 10.0 mi Calm Calm - N/A   Clear
7:35 AM 21.2 °F - 3.2 °F 46% 30.36 in 10.0 mi Calm Calm - N/A   Clear
7:55 AM 23.0 °F - 3.2 °F 43% 30.37 in 10.0 mi Calm Calm - N/A   Clear
8:15 AM 28.4 °F - 3.2 °F 34% 30.37 in 7.0 mi Calm Calm - N/A   Clear
8:35 AM 32.0 °F - 5.0 °F 32% 30.37 in 10.0 mi Calm Calm - N/A   Clear
8:55 AM 46.4 °F 41.1 °F -0.4 °F 14% 30.37 in 10.0 mi ENE 11.5 mph 16.1 mph N/A   Clear
9:15 AM 48.2 °F - -0.4 °F 13% 30.37 in 10.0 mi ENE 16.1 mph 20.7 mph N/A   Clear
9:35 AM 50.0 °F - -2.2 °F 12% 30.37 in 10.0 mi ENE 15.0 mph - N/A   Clear
9:55 AM 50.0 °F - -2.2 °F 12% 30.38 in 10.0 mi ENE 15.0 mph - N/A   Clear
10:15 AM 51.8 °F - -4.0 °F 10% 30.38 in 10.0 mi ENE 16.1 mph 19.6 mph N/A   Clear
10:35 AM 51.8 °F - -4.0 °F 10% 30.37 in 10.0 mi ENE 11.5 mph - N/A   Clear
10:55 AM 53.6 °F - -5.8 °F 9% 30.36 in 10.0 mi ENE 13.8 mph - N/A   Clear
11:15 AM 53.6 °F - -7.6 °F 8% 30.34 in 10.0 mi ENE 13.8 mph - N/A   Clear
11:35 AM 53.6 °F - -7.6 °F 8% 30.33 in 10.0 mi ENE 12.7 mph - N/A   Clear
11:55 AM 53.6 °F - -7.6 °F 8% 30.33 in 10.0 mi ENE 12.7 mph - N/A   Clear
12:15 PM 55.4 °F - -5.8 °F 8% 30.31 in 10.0 mi ENE 10.4 mph - N/A   Clear
12:35 PM 55.4 °F - -4.0 °F 9% 30.31 in 10.0 mi ENE 10.4 mph 17.3 mph N/A   Clear
12:55 PM 53.6 °F - -4.0 °F 9% 30.30 in 10.0 mi ENE 9.2 mph 16.1 mph N/A   Clear
1:15 PM 53.6 °F - -5.8 °F 9% 30.30 in 10.0 mi ENE 10.4 mph - N/A   Clear
1:35 PM 53.6 °F - -4.0 °F 9% 30.30 in 10.0 mi ENE 8.1 mph - N/A   Clear
1:55 PM 55.4 °F - -4.0 °F 9% 30.30 in 10.0 mi East 9.2 mph - N/A   Clear
2:15 PM 55.4 °F - -5.8 °F 8% 30.30 in 10.0 mi East 9.2 mph - N/A   Clear
2:35 PM 53.6 °F - -5.8 °F 9% 30.30 in 10.0 mi ENE 9.2 mph - N/A   Clear
2:55 PM 53.6 °F - -5.8 °F 9% 30.30 in 10.0 mi East 9.2 mph - N/A   Clear
3:15 PM 53.6 °F - -4.0 °F 9% 30.30 in 10.0 mi ENE 8.1 mph - N/A   Clear
3:35 PM 51.8 °F - -4.0 °F 10% 30.29 in 10.0 mi ENE 6.9 mph - N/A   Clear
3:55 PM 51.8 °F - -4.0 °F 10% 30.29 in 10.0 mi ENE 8.1 mph - N/A   Clear
4:15 PM 51.8 °F - -4.0 °F 10% 30.29 in 10.0 mi ENE 8.1 mph - N/A   Clear
4:35 PM 50.0 °F - -4.0 °F 11% 30.30 in 10.0 mi East 4.6 mph - N/A   Clear
4:55 PM 44.6 °F - 1.4 °F 17% 30.30 in 10.0 mi Calm Calm - N/A   Clear
5:15 PM 41.0 °F - 1.4 °F 19% 30.31 in 10.0 mi Calm Calm - N/A   Clear
5:35 PM 37.4 °F - 1.4 °F 22% 30.31 in 10.0 mi Calm Calm - N/A   Clear
5:55 PM 35.6 °F - 1.4 °F 24% 30.31 in 10.0 mi Calm Calm - N/A   Clear
6:15 PM 32.0 °F - -0.4 °F 25% 30.32 in 10.0 mi Calm Calm - N/A   Clear
6:35 PM 32.0 °F - -0.4 °F 25% 30.32 in 10.0 mi Calm Calm - N/A   Clear
6:55 PM 30.2 °F - 1.4 °F 29% 30.32 in 10.0 mi Calm Calm - N/A   Clear
7:15 PM 30.2 °F - 1.4 °F 29% 30.33 in 10.0 mi Calm Calm - N/A   Clear
7:35 PM 28.4 °F - 1.4 °F 31% 30.33 in 10.0 mi Calm Calm - N/A   Clear
7:55 PM 28.4 °F - 1.4 °F 31% 30.33 in 10.0 mi Calm Calm - N/A   Clear
8:15 PM 26.6 °F - 3.2 °F 37% 30.33 in 10.0 mi Calm Calm - N/A   Clear
8:35 PM 26.6 °F - 3.2 °F 37% 30.33 in 10.0 mi Calm Calm - N/A   Clear
8:55 PM 26.6 °F - 3.2 °F 37% 30.33 in 10.0 mi Calm Calm - N/A   Clear
9:15 PM 26.6 °F - 3.2 °F 37% 30.33 in 10.0 mi Calm Calm - N/A   Clear
9:35 PM 26.6 °F - 3.2 °F 37% 30.34 in 10.0 mi Calm Calm - N/A   Clear
9:55 PM 24.8 °F - 3.2 °F 40% 30.34 in 10.0 mi Calm Calm - N/A   Clear
10:15 PM 24.8 °F - 3.2 °F 40% 30.33 in 10.0 mi Calm Calm - N/A   Clear
10:35 PM 23.0 °F - 3.2 °F 43% 30.33 in 10.0 mi Calm Calm - N/A   Clear
10:55 PM 23.0 °F - 1.4 °F 39% 30.33 in 10.0 mi Calm Calm - N/A   Clear
11:15 PM 23.0 °F - 3.2 °F 43% 30.32 in 10.0 mi Calm Calm - N/A   Clear
11:35 PM 23.0 °F - 1.4 °F 39% 30.32 in 10.0 mi Calm Calm - N/A   Clear
11:55 PM 23.0 °F - 1.4 °F 39% 30.32 in 10.0 mi Calm Calm - N/A   Clear